GFSMW_700_spd_000.txt.gz
Wind_Speed
13 14 22 32 24 23 26 27 29 30 31 32 34 34 36 36 37 36 39 40 37 35 33 34 37 38 38 38 39 39 38 37 37 38 37 38 37 37 37 40 40 36 32
14 13 20 22 21 24 24 26 30 36 38 34 33 32 32 34 36 36 39 40 35 37 39 36 37 37 39 40 40 40 39 35 34 37 38 39 38 34 39 40 39 35 34
15 15 20 24 28 28 29 32 35 36 38 36 28 34 36 32 34 37 36 35 31 35 34 38 38 38 40 39 37 36 35 37 35 34 36 38 41 40 35 38 36 39 42
18 21 23 27 29 32 35 34 34 34 35 38 39 32 38 40 35 35 34 28 25 29 33 36 34 34 39 40 39 37 36 38 40 39 37 36 39 42 45 42 38 40 41
22 23 23 25 30 30 32 30 29 31 32 32 36 39 34 38 36 36 37 32 34 40 45 46 47 41 37 42 43 42 40 41 43 40 39 38 37 38 43 48 45 44 41
26 25 21 24 25 27 32 32 36 34 34 34 34 38 41 36 41 42 44 46 48 49 50 53 54 42 40 42 44 45 48 48 46 43 42 41 39 38 39 41 43 45 46
18 18 25 24 24 32 27 31 38 43 43 41 39 40 41 42 41 45 49 50 53 51 48 48 54 43 42 42 46 48 51 51 48 44 41 41 40 39 39 41 44 45 45
12 25 24 23 25 25 30 32 35 36 39 41 44 48 45 47 48 48 52 55 48 51 55 58 51 42 47 48 48 52 53 49 46 44 41 40 40 40 40 41 42 46 47
24 24 26 23 24 28 33 38 45 34 35 38 41 43 46 50 54 55 58 52 49 50 55 56 49 47 46 49 50 51 50 47 45 44 42 41 40 40 41 42 43 44 49
30 27 28 28 26 36 39 53 45 45 40 39 41 43 45 50 53 57 57 53 54 56 52 52 46 45 47 47 48 48 47 45 43 42 42 41 40 40 40 41 43 42 43
30 31 26 27 36 41 52 51 50 43 42 40 42 44 44 43 47 52 54 56 54 52 47 43 43 43 45 46 47 46 43 42 41 39 38 39 37 39 40 41 43 45 44
30 22 25 33 44 56 54 50 50 49 49 47 46 46 42 39 41 46 51 50 45 43 43 40 41 44 47 47 48 44 42 39 39 38 39 39 39 41 41 41 42 44 46
26 29 32 42 47 52 49 47 46 48 50 50 49 46 41 38 38 42 42 43 43 39 37 39 42 46 47 49 44 39 39 40 40 41 41 42 43 43 42 42 43 43 45
27 38 44 48 52 51 51 51 50 49 50 48 47 44 39 38 38 39 42 38 35 36 39 42 45 47 47 43 40 41 43 43 44 44 45 46 46 47 47 46 47 47 48
39 55 46 44 52 50 53 50 48 46 45 44 41 37 40 37 38 43 32 33 35 39 43 45 46 45 43 41 43 45 46 45 44 45 47 49 49 50 48 48 47 48 50
59 54 44 53 51 50 51 48 46 42 38 39 40 37 32 34 36 29 33 35 40 43 45 45 44 44 42 44 44 43 42 43 47 49 49 48 45 42 40 40 41 42 45
48 54 54 53 48 51 52 48 45 42 37 37 35 34 33 35 31 33 33 38 42 46 45 44 43 43 44 41 40 42 46 48 47 45 42 39 36 35 34 34 35 36 38
48 52 47 54 54 51 49 45 34 35 34 31 35 37 31 31 31 34 37 41 44 44 44 43 43 42 39 40 44 46 47 43 38 36 35 36 35 34 34 35 36 37 37
51 49 51 50 54 53 46 36 32 28 28 30 27 27 30 30 33 38 40 42 43 43 42 43 39 38 41 42 44 39 36 36 36 34 34 34 34 31 29 31 34 37 39
48 50 54 54 54 48 37 31 24 20 18 23 24 27 30 34 37 40 40 40 41 41 42 38 37 40 42 42 33 30 32 34 35 36 36 34 33 31 29 29 30 34 33
52 52 52 52 49 38 29 20 17 15 19 23 28 31 33 35 37 38 38 39 40 40 38 38 38 40 41 31 27 27 31 34 37 36 33 30 27 26 27 28 31 30 28
56 53 51 50 37 27 21 19 17 21 23 27 32 34 35 35 35 36 36 37 37 37 37 39 39 39 28 24 24 27 28 31 34 32 27 24 21 20 20 22 25 27 29
50 48 47 39 27 22 23 23 21 24 28 31 32 33 33 32 34 35 35 36 36 36 37 39 40 31 21 21 22 24 27 29 27 22 18 17 17 17 17 19 21 23 26
51 45 37 26 23 24 23 23 25 27 30 31 32 32 31 32 32 33 34 35 35 35 36 38 37 24 19 20 21 24 25 25 22 17 16 16 16 15 16 16 16 19 22
42 35 25 20 21 24 24 27 29 31 31 31 31 30 31 32 33 32 33 34 33 34 36 37 29 21 19 19 22 24 24 24 23 23 20 18 16 14 12 11 10 7 6
34 23 18 23 25 23 26 29 29 30 31 30 30 30 32 33 32 32 31 32 32 28 31 31 23 17 17 19 20 21 22 21 21 21 21 21 15 8 8 8 6 4 3

GFSMW_700_spd_006.txt.gz
Wind_Speed
13 13 10 16 16 18 22 22 24 24 24 23 27 28 28 28 27 28 28 29 26 23 26 29 30 30 32 33 31 31 30 32 33 33 32 31 32 32 35 38 41 43 44
4 8 11 11 15 15 16 26 23 19 22 31 29 33 33 31 29 27 29 32 32 31 31 31 31 33 35 37 35 35 37 38 39 36 35 37 35 31 27 33 37 40 42
13 13 15 19 18 20 25 32 35 27 28 38 38 44 41 36 32 29 31 33 36 37 37 36 32 33 36 38 39 44 44 41 42 43 43 44 41 38 32 29 30 34 37
13 19 25 31 28 28 31 40 41 35 33 39 40 43 47 45 37 34 36 37 40 41 39 40 39 38 41 43 46 48 44 42 44 47 48 49 44 41 45 36 35 35 35
16 24 27 28 28 30 34 38 40 37 35 33 37 47 50 45 42 38 38 41 45 46 42 40 42 45 46 49 46 44 46 47 42 53 56 47 43 38 40 46 42 38 38
22 23 25 27 28 31 36 39 38 39 36 35 36 49 42 42 40 37 38 42 47 49 47 44 46 47 47 51 52 51 49 47 53 61 53 44 39 40 41 43 44 47 41
20 24 27 33 34 33 40 34 34 32 36 37 47 42 39 38 37 38 41 42 45 54 49 47 50 50 53 52 55 54 61 56 56 52 53 42 41 40 41 43 45 49 47
27 30 31 31 34 34 32 30 38 35 36 48 52 43 41 41 40 41 44 46 39 49 52 50 54 55 52 58 56 61 54 50 49 52 48 46 43 40 40 42 45 49 50
34 42 39 38 37 31 29 31 38 42 52 59 51 48 46 40 41 45 46 44 41 40 50 58 54 56 56 45 39 43 43 44 46 46 45 43 42 41 40 41 43 45 50
36 39 39 38 37 40 40 43 46 52 54 49 49 49 48 50 48 46 40 37 35 37 45 50 49 41 41 47 43 42 41 42 42 41 41 41 41 41 41 42 44 44 46
29 27 28 28 32 39 43 54 52 48 48 49 49 52 53 52 49 41 33 33 33 37 39 42 40 38 41 41 39 38 39 40 41 41 41 41 39 39 40 40 42 45 45
28 34 35 37 40 49 57 47 47 47 48 48 52 54 53 51 42 36 33 35 30 34 34 32 35 36 36 37 39 40 39 40 41 41 39 39 37 38 38 39 41 43 43
32 37 42 48 51 49 48 49 46 47 51 53 52 52 53 48 42 36 32 29 27 26 32 35 34 35 36 38 38 39 39 39 39 39 38 38 40 41 41 42 43 44 45
37 38 48 47 43 46 44 45 48 51 52 50 49 48 46 41 37 34 32 31 32 33 33 33 34 35 37 38 38 38 38 37 38 39 41 42 42 41 41 42 44 46 48
45 44 49 42 48 46 44 49 50 50 51 51 47 42 34 38 35 36 37 36 28 27 32 33 36 39 39 38 39 38 41 42 42 40 39 39 40 42 43 44 44 46 47
50 47 44 47 40 45 47 47 50 50 50 48 40 31 28 35 35 33 33 33 34 33 34 37 40 40 38 39 40 42 42 42 42 42 43 43 43 45 46 47 48 49 50
40 40 41 42 45 46 49 51 50 50 47 39 26 20 23 26 31 35 36 34 35 37 39 41 40 39 38 39 40 40 41 42 44 44 46 45 40 37 36 37 39 41 43
33 37 40 43 46 48 51 52 50 46 37 29 24 21 22 25 28 28 31 33 38 41 42 40 38 38 38 38 37 40 42 44 44 41 36 34 33 31 33 35 37 39 39
33 34 38 45 49 51 51 50 47 34 29 30 28 26 26 27 24 22 36 40 41 40 38 37 36 37 36 37 38 41 42 41 33 30 31 33 35 33 34 38 40 40 38
35 39 44 51 52 51 48 44 35 29 29 29 27 26 26 28 32 34 38 37 36 36 36 35 35 36 37 37 37 40 38 32 30 29 30 31 33 33 32 33 34 37 31
37 43 49 49 48 45 41 31 32 31 29 24 25 28 30 30 33 33 33 34 34 34 34 33 33 36 37 35 37 33 29 29 29 29 28 28 27 23 20 22 25 26 25
45 45 46 45 42 37 29 25 27 26 28 30 29 30 30 31 32 31 31 32 33 34 33 33 32 34 32 33 30 24 24 26 28 28 27 26 24 22 19 18 19 20 21
46 48 47 43 34 31 26 23 27 27 26 28 29 29 29 29 30 30 31 32 32 33 33 34 33 32 28 27 21 19 20 20 20 23 25 24 24 23 19 18 15 15 18
48 47 42 34 27 29 24 26 24 25 28 29 27 27 28 28 29 30 32 32 32 32 33 34 33 30 25 20 15 15 14 14 17 21 24 28 25 19 12 10 11 11 14
45 41 33 24 26 30 29 26 22 27 27 25 25 27 28 30 31 31 31 30 31 32 33 34 33 29 24 15 13 12 11 14 17 21 25 25 15 10 5 4 5 7 9
41 34 29 28 28 29 26 22 23 26 24 23 25 29 31 32 31 29 28 29 30 29 31 32 31 25 23 15 11 9 10 12 15 19 22 24 15 9 5 4 4 4 4

GFSMW_700_spd_009.txt.gz
Wind_Speed
8 9 6 4 8 11 16 17 17 23 26 27 30 31 32 30 33 33 31 29 27 27 28 29 30 32 33 32 30 30 30 30 31 31 34 33 33 32 34 35 35 37 45
5 6 7 11 11 11 16 15 21 27 27 28 31 34 39 34 38 36 33 32 32 32 32 32 32 34 36 36 37 37 36 35 35 36 39 38 32 31 30 35 37 38 37
9 9 13 18 19 18 15 21 27 32 35 35 35 36 41 38 41 35 32 33 35 36 37 38 39 41 42 40 40 41 42 39 39 39 41 44 42 40 38 33 36 39 38
13 14 20 24 27 28 30 32 33 36 39 38 43 40 42 41 48 43 38 36 36 37 37 39 42 46 47 44 44 45 46 47 46 43 44 45 48 46 48 39 38 41 40
20 23 25 30 32 33 32 33 34 35 36 38 40 40 42 43 54 48 43 42 41 42 44 43 44 46 44 47 43 47 47 49 51 52 50 50 49 48 49 55 45 42 42
21 22 26 28 33 31 33 35 35 36 40 40 40 39 42 49 55 46 45 46 45 43 45 46 46 48 52 58 47 49 56 56 55 59 56 54 54 50 45 49 51 48 44
19 24 28 34 29 29 30 32 34 36 39 42 45 46 51 51 46 46 46 45 46 48 48 48 46 49 55 58 55 57 63 64 63 60 54 52 44 40 48 49 47 51 51
22 28 26 27 26 26 29 34 37 39 42 46 54 51 47 46 45 46 48 49 50 50 50 47 42 47 53 56 58 63 66 56 50 45 41 46 49 47 47 47 50 53 53
27 24 28 27 26 31 34 39 43 46 51 54 47 48 47 46 48 50 51 50 46 41 37 34 35 42 50 58 61 57 49 49 45 47 47 46 45 45 47 48 48 50 55
21 25 26 28 32 35 37 42 49 54 52 49 45 46 50 52 52 52 50 43 35 30 30 30 30 35 44 41 42 44 42 43 43 43 42 43 45 46 48 49 48 49 52
29 30 32 34 34 38 43 49 50 47 48 48 48 50 52 55 57 54 49 36 31 30 30 29 28 37 40 39 39 38 39 40 42 42 44 45 46 46 46 46 46 46 46
28 30 33 37 41 42 45 46 49 49 45 46 46 51 52 53 53 50 42 32 31 31 24 26 28 33 36 37 39 41 44 45 45 44 44 44 43 43 42 42 42 43 43
34 40 42 47 51 47 44 46 42 42 43 47 49 52 51 50 48 39 33 33 34 31 30 31 30 33 34 36 40 43 43 43 43 42 41 41 40 41 41 43 45 46 48
41 45 46 45 43 43 40 41 42 43 48 52 53 52 50 46 34 30 35 35 35 33 32 31 28 30 32 35 39 41 41 41 40 39 39 40 40 40 40 40 42 44 46
51 51 46 42 43 40 41 41 44 49 54 53 51 49 44 31 28 33 37 35 32 31 31 38 37 36 39 41 43 43 43 42 41 40 39 39 40 41 43 45 45 46 48
50 48 44 41 39 39 42 45 49 52 52 53 50 41 29 25 25 24 23 29 29 31 34 38 42 42 43 44 44 45 44 42 41 41 40 41 43 43 45 46 48 49 50
50 50 45 38 33 40 45 46 48 51 52 49 41 32 28 24 28 30 33 34 28 28 37 40 42 43 43 43 44 44 42 41 40 41 44 45 44 40 37 36 37 39 40
51 47 42 38 38 43 46 48 50 49 44 38 33 33 31 30 28 29 29 29 32 40 40 41 41 41 41 42 42 41 40 40 40 43 44 39 34 32 33 35 36 38 39
50 43 38 43 41 46 49 49 46 41 33 36 35 34 28 27 28 32 36 36 36 41 40 39 39 41 40 40 40 40 39 38 39 38 31 33 32 32 33 34 38 38 37
45 32 38 42 44 47 47 42 38 31 29 29 30 32 33 34 31 29 32 36 37 37 37 38 38 39 39 38 39 39 38 38 33 29 29 31 33 33 32 32 33 31 24
42 39 40 45 47 45 40 32 33 31 29 31 33 29 30 32 31 32 34 35 35 35 36 36 36 37 38 37 38 35 35 33 28 28 28 28 28 27 27 27 26 26 22
39 41 43 44 44 39 34 31 31 30 31 29 28 30 31 31 31 32 33 33 33 35 35 35 35 34 34 36 34 31 30 27 27 25 27 27 26 25 24 24 22 20 20
41 43 45 43 40 34 31 30 29 29 29 27 29 31 30 29 31 33 33 34 34 34 35 35 35 34 32 32 28 27 23 22 22 21 24 29 29 21 17 14 13 14 16
42 43 42 39 34 30 27 34 36 32 26 27 30 30 28 30 33 35 35 34 34 34 34 35 35 33 32 27 24 19 18 16 15 17 21 27 23 19 14 9 8 10 12
42 42 40 36 31 28 29 27 24 25 27 30 29 28 30 34 36 34 33 32 32 33 33 34 35 34 31 22 19 15 12 10 12 14 19 24 21 17 13 10 9 9 10
41 40 35 33 28 25 24 24 25 26 29 28 27 30 33 35 33 31 29 29 31 31 32 33 33 32 27 22 16 12 9 8 10 13 16 19 21 15 11 9 10 10 10

GFSMW_700_spd_015.txt.gz
Wind_Speed
13 12 12 10 8 9 9 9 14 17 19 22 24 24 23 23 24 27 28 29 33 38 40 38 33 32 34 35 37 38 38 39 36 38 37 36 35 36 36 36 36 38 38
8 8 7 7 12 14 10 7 11 14 18 21 25 27 28 29 31 33 34 38 41 44 43 41 39 38 39 40 39 41 44 43 41 43 44 47 44 42 37 37 36 37 38
3 4 9 12 15 16 15 13 13 17 21 25 28 30 32 34 37 38 40 43 43 42 42 42 42 42 43 44 44 44 45 48 47 45 46 49 51 48 43 44 42 40 38
7 10 13 15 13 18 19 15 18 21 25 29 31 33 34 36 40 42 46 46 42 45 44 43 41 40 43 45 47 49 50 50 52 53 53 56 55 54 50 49 50 49 43
9 13 14 14 18 22 19 20 22 26 29 33 36 37 38 41 42 46 48 42 45 47 44 43 43 46 46 47 50 54 56 57 54 55 59 59 58 58 56 53 54 53 51
13 16 18 20 23 25 28 28 29 32 35 37 38 40 45 49 48 42 44 46 44 42 44 47 48 48 48 50 51 53 55 55 52 52 57 60 62 61 60 65 63 59 58
21 22 22 24 25 28 31 31 34 37 41 45 48 45 50 52 51 45 42 44 47 49 51 53 53 54 54 54 51 47 45 43 40 39 46 56 62 58 62 62 63 62 62
21 17 21 26 30 31 32 37 40 41 44 45 50 46 42 41 39 40 43 47 50 53 54 56 55 54 51 43 39 35 32 32 34 41 38 27 35 32 36 35 34 39 45
22 20 21 25 28 32 35 38 40 42 48 49 45 40 41 41 41 43 49 51 51 53 55 54 50 45 37 32 29 28 29 36 38 37 40 36 42 42 34 34 36 38 38
22 19 21 25 29 34 39 45 49 51 50 47 44 44 40 40 43 46 48 52 53 51 47 42 37 31 30 29 34 35 31 34 34 35 35 34 34 35 36 36 38 41 43
21 24 28 33 39 45 49 50 49 48 46 46 46 44 43 43 45 48 50 52 48 44 38 33 30 30 30 31 27 30 31 32 33 34 35 36 36 37 37 38 37 39 42
25 30 36 41 45 45 43 45 44 44 45 47 46 39 44 50 52 54 54 49 41 33 29 29 30 33 36 32 29 28 28 28 30 33 35 36 37 38 39 38 38 39 40
29 38 40 38 41 43 43 48 46 44 43 38 42 43 47 51 52 49 41 34 30 27 27 28 27 28 29 30 32 33 32 34 36 35 35 35 36 36 36 37 38 39 40
41 43 42 43 44 43 47 42 35 36 40 41 46 50 52 51 44 37 34 31 30 28 28 30 31 29 30 30 32 34 34 37 38 37 36 36 36 36 37 38 38 38 40
47 47 50 49 52 46 39 31 33 39 41 45 49 51 51 46 37 37 36 34 31 30 31 31 28 31 34 37 37 36 37 37 37 37 37 36 36 36 37 39 38 39 41
50 48 48 49 46 38 35 37 41 45 47 48 48 46 40 34 34 36 33 34 36 32 32 32 32 31 33 34 34 35 37 38 38 38 36 36 36 36 37 37 39 40 41
48 48 41 48 37 37 41 39 41 44 46 45 43 39 33 32 33 35 35 33 30 29 30 30 32 33 34 35 35 36 37 37 37 36 36 36 35 36 36 35 34 32 33
42 36 43 36 39 40 40 41 44 46 45 43 40 36 34 33 35 35 31 29 29 29 30 33 35 36 35 36 37 37 36 36 36 36 36 36 34 32 31 30 31 31 32
34 39 33 36 38 40 43 45 45 45 42 40 39 35 34 37 36 31 30 30 28 30 34 37 37 38 37 36 36 37 36 35 35 35 35 34 30 26 27 28 31 33 32
29 32 34 36 37 39 42 43 43 41 39 37 37 32 36 33 30 31 31 30 32 36 38 37 36 36 35 35 36 38 38 37 36 34 31 27 23 23 24 29 34 35 30
29 31 32 35 37 39 41 41 40 37 35 32 34 38 30 31 32 31 31 33 37 38 37 35 34 34 35 35 36 36 36 36 35 31 25 21 19 21 25 29 26 24 19
29 31 33 35 38 40 40 40 37 35 34 31 29 29 30 32 31 31 34 37 37 35 33 32 33 35 34 34 33 33 32 32 30 25 21 20 18 20 24 20 16 12 9
33 34 36 37 39 40 40 38 36 35 34 31 29 29 31 31 31 34 37 36 34 33 33 34 34 35 33 32 31 29 26 24 22 20 18 18 18 20 17 12 9 8 8
35 36 37 38 38 38 38 36 36 35 33 31 28 29 29 30 32 35 36 35 32 33 34 35 36 35 32 30 27 22 19 16 14 14 13 13 15 18 11 7 6 8 8
38 37 37 38 39 39 36 34 34 32 30 28 28 28 28 31 33 34 33 31 32 33 36 37 35 34 31 29 25 21 17 13 11 10 10 9 12 14 10 7 6 7 8
37 37 38 40 41 39 35 35 32 31 26 25 26 27 29 31 32 31 28 29 31 33 35 33 33 30 30 29 21 17 15 12 10 9 8 7 9 11 16 15 12 11 11

GFSMW_700_spd_018.txt.gz
Wind_Speed
15 13 12 12 12 11 10 12 14 17 20 22 21 22 24 26 27 27 28 32 33 35 38 40 39 37 38 36 36 36 37 37 39 41 42 44 46 46 44 43 43 43 43
13 13 11 11 12 13 15 14 17 17 19 21 24 26 28 30 32 34 35 37 40 41 44 46 40 39 39 38 36 37 40 41 41 44 44 48 47 45 50 48 45 44 45
10 9 11 12 14 17 18 19 19 19 21 25 28 31 34 36 37 37 39 40 44 43 46 42 44 41 38 39 39 41 45 48 47 47 49 48 44 36 35 49 47 44 46
8 9 10 14 18 19 21 22 20 23 27 30 33 36 39 41 43 45 46 45 47 51 45 41 41 42 42 44 45 47 48 50 51 52 51 57 53 56 45 44 50 50 49
8 11 15 17 20 22 22 23 25 27 30 33 36 39 44 46 48 51 53 52 51 47 38 39 43 44 45 46 48 49 52 55 55 54 56 55 62 60 58 60 53 52 53
12 15 19 22 24 25 26 26 28 30 31 36 40 43 45 49 54 53 50 49 47 40 41 41 44 46 48 51 52 55 57 56 54 52 51 50 52 56 55 57 58 55 43
17 22 21 22 25 27 28 28 29 32 37 40 46 52 49 54 54 51 49 47 41 43 44 44 47 52 55 58 59 58 55 51 47 45 42 38 37 43 46 51 53 51 59
24 23 22 23 25 27 28 31 35 40 45 46 50 49 48 47 47 47 47 46 46 43 50 53 55 56 55 53 49 45 41 38 38 35 36 33 26 29 31 36 31 32 33
26 26 24 24 25 27 32 35 39 42 45 45 46 45 44 43 44 46 45 43 46 53 54 54 52 49 45 39 34 32 33 34 36 38 41 41 41 39 30 31 31 30 31
24 21 20 22 25 32 37 39 39 42 46 46 46 44 44 47 46 42 46 51 52 53 50 44 40 36 30 27 31 32 30 29 29 29 29 33 32 34 35 31 32 35 36
23 21 21 28 34 38 39 43 44 44 43 40 39 39 40 41 44 47 51 52 50 43 36 31 29 27 26 30 37 36 30 27 28 28 28 29 31 34 36 33 30 32 32
18 22 30 36 42 42 43 42 40 39 37 34 33 36 41 46 50 51 48 41 35 31 29 26 26 26 31 33 31 30 30 32 31 31 32 33 34 35 35 36 38 37 34
29 32 39 43 44 41 40 39 35 34 32 33 38 43 46 49 49 45 38 33 32 26 23 26 31 31 35 37 35 33 30 30 33 35 36 36 35 34 35 36 37 38 39
30 40 45 43 41 39 39 37 33 34 38 40 43 46 48 47 44 33 29 30 25 26 29 30 33 36 37 35 35 36 37 37 36 36 35 35 35 36 36 37 38 38 39
43 47 43 41 37 38 36 34 34 37 40 44 46 48 47 43 38 32 31 31 33 32 33 32 30 30 30 31 33 34 36 36 35 35 35 35 35 35 36 38 38 37 38
45 46 42 35 36 36 34 35 38 40 43 45 46 46 42 38 33 31 31 36 34 31 29 28 27 26 31 34 35 35 35 35 34 34 33 33 34 35 36 35 35 35 36
41 37 31 30 29 33 34 36 39 41 42 43 43 41 39 36 33 32 36 32 29 28 28 28 30 33 36 37 36 37 36 36 34 34 34 33 33 34 34 33 32 32 33
35 35 31 30 31 31 33 34 37 39 40 42 41 40 37 36 33 33 30 30 30 29 29 32 35 38 37 36 36 35 35 35 35 35 35 36 34 32 32 31 31 30 30
35 27 30 26 28 31 33 36 38 41 42 42 39 37 34 35 33 30 31 30 30 31 34 36 37 35 34 35 35 36 37 37 36 35 34 33 31 30 28 29 29 28 28
32 29 25 29 32 34 37 40 41 41 41 39 36 34 32 31 32 32 32 32 33 36 36 34 33 33 33 35 36 38 38 38 37 34 31 30 28 26 25 26 27 28 29
24 27 31 33 36 38 40 41 43 43 42 37 35 33 31 30 31 31 31 33 35 36 34 32 33 34 34 35 35 35 35 35 33 31 27 24 23 20 21 23 25 24 19
28 33 36 38 38 40 42 42 43 42 39 37 34 32 30 29 30 31 32 34 35 34 32 33 34 35 36 35 32 31 30 30 28 25 22 20 19 18 18 21 19 14 11
36 41 42 41 40 42 43 43 43 40 35 35 34 29 29 29 29 30 32 34 33 32 33 34 36 36 34 33 29 30 28 24 23 21 19 17 16 16 17 16 11 10 8
44 48 43 42 42 41 43 43 42 34 36 35 31 28 27 27 27 30 32 31 30 32 34 36 37 35 33 31 29 27 21 18 16 14 13 12 11 13 13 8 6 6 6
44 41 41 42 42 44 44 42 39 35 32 30 24 24 25 26 26 28 27 26 29 32 35 36 35 35 32 28 28 23 19 15 12 10 9 8 8 11 11 5 3 3 4
39 38 39 42 44 44 43 38 34 31 29 21 21 23 24 24 25 24 23 26 26 32 35 34 33 31 30 28 24 18 16 13 10 9 8 6 6 7 8 10 11 9 9

GFSMW_700_spd_021.txt.gz
Wind_Speed
21 28 21 19 19 18 18 15 17 19 20 24 26 27 27 28 30 34 38 37 39 41 43 43 42 41 44 41 40 38 36 35 35 39 40 41 41 44 46 46 48 48 49
21 22 20 18 16 13 14 15 16 17 19 24 26 27 29 32 36 37 41 45 48 47 49 49 51 47 49 46 42 39 38 39 38 42 45 49 47 44 42 43 44 44 45
5 13 13 13 14 15 18 21 22 26 24 23 30 32 34 37 37 43 45 44 47 50 54 55 53 47 45 43 41 41 42 43 41 44 45 45 48 41 32 36 44 43 44
7 10 12 13 15 18 21 24 27 29 28 28 34 35 37 37 42 47 50 52 50 52 51 49 48 45 41 44 44 43 44 47 49 52 51 46 44 51 50 46 39 43 43
12 12 14 17 19 23 27 29 32 33 33 34 35 37 40 42 44 49 56 55 50 50 52 50 46 42 44 46 46 47 49 53 56 57 58 56 51 50 54 58 52 46 45
15 16 18 22 28 31 27 29 28 30 33 34 39 43 46 48 51 53 54 55 51 49 48 49 48 49 50 49 55 57 57 58 60 58 57 55 54 51 51 53 54 53 53
16 18 22 22 26 29 28 26 27 30 37 42 44 46 49 50 49 50 49 49 49 50 51 50 50 50 56 61 61 59 55 51 50 48 45 45 46 45 44 45 46 48 51
19 26 27 26 25 28 28 26 27 33 36 40 43 44 45 45 44 45 46 48 49 49 49 51 55 59 57 53 48 46 44 41 35 34 35 35 36 36 34 33 38 38 40
25 18 16 15 23 26 28 32 34 38 40 39 41 41 41 42 43 43 41 42 45 48 51 54 53 50 44 42 37 34 33 34 34 34 33 33 31 30 34 40 34 30 32
14 14 19 21 24 30 34 40 42 39 39 37 38 39 40 39 40 42 46 49 52 52 49 41 37 36 36 32 31 30 34 35 32 27 23 21 22 24 27 28 30 31 29
15 17 21 26 26 28 30 33 36 39 38 36 37 38 38 42 45 48 50 51 50 45 38 32 30 31 30 30 32 32 37 35 35 31 30 28 26 28 30 30 30 29 28
17 20 21 26 31 32 36 39 39 36 38 37 37 38 42 44 46 47 49 48 41 31 27 29 29 32 36 38 40 39 40 38 35 34 31 32 33 33 36 37 37 35 32
21 25 25 27 28 35 38 37 36 37 36 35 38 39 42 44 46 48 46 39 30 32 29 31 33 34 35 38 40 38 36 35 34 35 37 37 34 35 36 36 37 37 36
25 28 30 33 38 37 33 34 33 33 36 38 39 42 44 45 45 44 41 35 34 31 34 35 33 35 34 33 33 31 32 34 35 36 36 36 36 36 36 37 37 38 39
28 36 43 38 37 31 31 31 33 35 38 39 41 43 44 44 42 39 36 33 34 38 35 32 31 32 31 31 31 34 36 36 35 35 36 36 37 35 34 36 37 37 38
43 44 35 34 30 26 25 31 33 36 40 41 43 42 40 40 36 36 37 36 37 33 31 30 30 30 30 36 37 37 37 36 36 35 34 34 36 36 36 36 37 36 36
44 35 34 29 24 26 28 32 35 38 42 44 38 36 40 39 38 36 37 36 33 30 28 28 30 33 34 38 35 34 35 35 34 35 36 36 34 34 34 35 36 36 34
35 36 30 26 27 28 29 31 34 37 33 32 38 43 41 39 34 32 30 32 30 28 27 29 32 34 32 36 35 34 35 37 37 37 36 36 34 32 33 34 34 33 33
41 34 29 29 30 29 33 33 36 34 33 32 32 33 38 35 31 30 29 29 25 25 26 32 34 33 33 35 36 37 39 39 38 37 36 33 32 30 31 31 31 29 27
24 25 27 28 30 32 34 35 37 35 33 29 35 41 33 33 32 30 30 26 25 28 34 32 33 34 35 37 38 37 36 36 36 33 31 29 27 27 26 26 26 27 25
26 29 30 32 33 36 36 36 37 35 30 28 38 43 37 30 29 30 26 25 25 30 32 33 34 35 37 37 37 35 33 33 34 32 27 22 21 23 22 22 23 24 23
28 30 34 36 41 39 34 34 34 34 37 44 44 39 38 33 30 29 24 25 30 30 31 34 35 36 36 34 36 33 31 32 30 27 24 21 20 20 20 20 20 21 16
31 34 36 36 35 34 34 35 36 42 44 42 37 35 34 34 25 25 27 28 29 29 31 34 37 37 35 35 33 30 30 26 24 23 21 19 17 16 15 17 14 10 8
37 35 33 33 34 34 34 38 37 42 39 37 34 30 25 22 23 25 26 28 27 28 31 35 38 36 35 33 31 30 25 21 19 17 15 14 12 10 13 9 5 4 6
32 33 33 35 36 38 39 35 42 39 34 31 32 25 18 20 22 22 25 24 26 26 30 34 36 35 34 32 31 27 21 19 17 14 13 10 8 9 11 11 5 2 3
34 33 34 36 39 38 40 42 40 34 30 31 25 17 18 21 21 21 22 24 23 27 29 31 33 32 33 32 28 21 18 16 15 13 10 9 8 8 7 6 6 5 5

GFSMW_700_spd_024.txt.gz
Wind_Speed
20 24 25 29 27 19 20 22 22 19 18 21 24 25 29 29 31 33 37 40 38 43 46 47 48 49 49 51 52 49 49 45 43 45 44 43 41 40 39 40 42 44 44
25 26 24 26 21 18 17 15 18 19 20 25 24 25 28 31 34 35 40 48 46 49 48 53 53 53 52 49 45 44 46 44 41 42 44 47 47 42 40 41 38 38 41
20 28 29 21 14 13 15 18 22 24 26 28 30 29 31 34 36 41 44 47 45 47 51 52 50 50 50 47 44 42 43 46 43 42 44 47 50 49 46 44 41 39 32
7 12 9 11 14 16 19 22 27 31 32 31 32 33 34 38 40 43 45 46 47 48 50 49 50 51 51 49 48 48 48 47 48 49 48 48 49 53 59 53 48 44 44
7 8 13 17 18 20 21 26 29 32 35 31 30 31 34 38 41 43 46 46 47 49 49 50 51 51 51 51 53 52 51 51 51 53 58 56 50 44 49 60 59 56 50
7 12 16 19 26 29 32 30 27 26 29 34 32 34 37 41 43 44 46 46 46 46 45 46 48 48 51 50 51 53 53 54 52 48 49 51 53 51 45 45 51 55 52
6 5 12 18 22 25 30 32 30 28 30 35 41 45 47 44 43 42 41 42 41 43 44 47 49 53 55 56 55 52 48 43 43 41 39 38 38 38 38 38 36 42 44
9 9 13 14 17 23 29 32 31 32 37 41 43 40 42 42 41 41 40 40 44 47 50 54 53 53 52 51 49 38 37 30 30 31 30 29 30 32 32 34 34 34 38
10 8 11 17 25 28 30 33 36 39 40 42 42 40 40 38 41 41 41 44 45 46 48 49 49 51 42 37 31 38 32 32 30 29 30 30 27 24 22 23 25 27 29
8 10 15 19 27 30 34 37 42 42 45 43 41 38 39 40 41 42 42 44 45 48 49 51 43 33 31 34 34 33 32 34 35 35 33 29 28 29 23 22 23 27 29
19 12 20 30 32 35 36 41 40 43 44 39 38 37 39 41 43 42 43 45 46 47 45 36 34 35 35 37 39 40 39 37 40 40 37 35 33 32 30 28 29 28 33
19 21 28 32 36 36 43 39 40 43 40 38 35 39 40 42 41 41 43 46 45 43 38 32 33 35 35 36 35 37 41 43 37 29 27 29 32 33 34 35 34 35 37
15 29 32 30 35 48 39 37 38 39 41 37 39 37 40 43 44 45 45 45 42 39 35 33 36 38 36 35 34 34 34 33 30 31 33 34 33 33 33 33 34 35 36
25 32 37 38 47 41 39 36 34 38 40 40 38 41 44 46 47 42 43 42 40 37 35 34 33 33 34 33 33 32 32 33 35 36 37 35 35 36 36 36 35 33 35
37 45 38 44 39 36 34 31 34 34 41 40 43 43 45 47 42 46 42 39 36 36 34 32 31 31 31 30 32 34 35 36 36 35 35 35 34 34 35 36 38 37 36
33 39 40 40 39 27 27 30 31 39 41 41 43 45 38 40 40 47 42 37 37 37 36 32 30 29 30 32 35 34 32 33 35 35 33 34 34 33 31 32 37 36 35
38 35 37 29 26 27 26 29 33 34 38 35 43 35 39 42 46 47 43 37 37 37 36 32 30 30 31 34 36 35 34 36 37 38 38 37 35 34 35 35 37 35 34
37 35 26 28 32 32 33 30 34 38 44 46 41 46 46 37 42 44 43 40 36 37 33 30 33 31 32 35 37 37 37 39 38 38 37 36 33 32 33 34 34 34 34
31 29 30 30 30 34 28 34 39 43 37 39 44 45 38 31 38 48 46 38 34 32 29 30 35 33 34 36 39 40 38 36 36 34 32 31 30 29 28 30 29 29 29
31 26 27 30 30 31 39 45 47 35 32 42 40 41 38 33 40 46 39 28 32 31 32 32 29 32 36 38 38 38 37 36 34 32 31 28 24 24 22 23 23 24 24
22 24 29 32 36 41 45 43 40 35 36 41 46 49 47 41 42 41 34 32 29 31 32 28 29 34 38 38 37 37 35 34 34 32 27 23 20 20 23 22 23 24 24
26 29 34 37 38 37 39 41 38 42 47 45 40 40 36 34 30 32 29 25 31 30 28 29 31 35 38 36 36 36 34 33 31 27 25 22 20 18 18 19 19 20 19
39 44 38 40 35 35 35 34 35 52 47 45 41 33 27 26 31 17 21 30 29 27 28 29 32 36 37 35 35 32 31 27 24 23 21 18 17 15 13 14 15 12 9
41 35 41 33 32 32 35 41 51 47 44 42 35 29 28 26 21 18 22 26 25 25 27 30 33 35 36 34 35 32 25 20 20 19 17 16 14 12 12 12 8 4 5
35 38 32 35 39 41 39 44 44 43 41 36 31 28 22 15 17 20 21 21 23 25 27 29 31 34 36 33 36 30 22 19 19 18 16 13 11 11 10 10 10 7 5
37 39 37 41 44 45 44 42 40 39 36 32 29 20 17 18 18 17 18 20 22 24 26 27 28 30 33 32 33 27 20 18 17 16 15 13 12 11 10 9 8 7 6

GFSMW_700_spd_030.txt.gz
Wind_Speed
20 26 27 20 22 21 21 20 23 24 21 15 14 17 23 26 28 31 32 34 35 38 39 40 45 48 49 51 51 50 47 47 48 48 47 44 42 42 41 40 42 43 44
23 27 28 23 22 23 26 26 19 16 16 16 19 21 23 24 25 28 31 33 36 38 40 44 47 49 50 50 49 47 47 46 46 47 48 52 47 44 42 43 43 45 46
20 23 22 25 27 24 14 15 17 19 20 23 27 28 28 28 28 31 33 34 36 39 43 46 47 47 46 46 48 47 46 47 47 48 48 50 54 55 50 45 44 44 45
16 17 19 22 20 19 19 18 20 23 26 26 24 23 23 25 30 32 35 38 40 40 40 40 44 46 46 47 46 48 48 48 48 48 49 49 49 52 58 54 50 47 46
19 22 19 16 18 21 23 24 25 27 27 27 28 32 36 37 37 38 40 40 40 42 42 42 46 47 47 48 48 49 50 49 49 48 48 49 43 35 42 51 49 43 39
13 10 8 12 18 19 21 22 26 29 30 32 35 38 41 42 42 42 43 44 43 43 42 47 48 47 46 46 46 47 48 47 46 43 40 38 35 37 38 37 37 34 28
11 11 15 21 16 23 25 26 30 35 38 39 41 44 45 45 44 46 47 46 45 44 47 47 46 45 46 47 47 46 45 41 36 32 32 34 33 33 34 35 33 32 29
17 17 19 21 22 27 28 30 33 41 42 41 44 44 42 42 43 46 46 44 45 47 47 48 49 49 50 48 45 43 40 37 37 38 38 38 36 36 34 37 34 34 31
14 15 15 15 19 24 27 29 35 45 45 45 46 43 44 44 44 44 44 43 41 45 50 51 49 46 44 44 44 43 41 40 39 39 37 35 33 34 34 34 22 31 32
14 15 16 19 25 30 31 37 41 46 47 45 47 44 42 42 43 44 42 44 44 53 44 40 43 39 39 40 40 38 38 40 39 37 32 34 33 29 27 27 31 34 35
14 19 22 26 28 30 33 44 47 46 44 47 43 41 42 40 46 45 46 48 46 53 41 38 38 39 37 37 38 40 38 37 36 35 34 32 31 30 29 28 29 32 36
25 25 25 28 32 36 44 45 41 42 46 44 43 42 43 43 48 47 49 48 47 41 39 42 32 36 32 33 36 37 37 36 35 33 32 33 35 36 36 37 37 38 38
22 24 27 31 36 42 43 41 43 44 41 40 43 43 43 46 47 53 54 49 54 51 51 32 25 34 33 33 35 35 32 30 31 33 35 37 39 39 39 38 37 37 38
24 27 28 36 44 44 43 43 40 38 41 42 43 47 47 47 48 44 50 52 44 48 34 34 36 36 33 30 32 32 30 30 32 34 37 39 40 40 40 40 39 38 36
27 30 37 44 44 44 43 40 39 41 41 42 44 47 46 48 51 47 46 46 46 39 37 29 32 38 30 30 32 33 30 31 35 38 41 42 41 41 41 41 41 40 39
32 36 42 42 42 41 39 40 41 41 41 43 44 46 52 50 41 45 46 46 40 30 32 30 34 36 32 31 34 32 32 35 39 43 41 40 40 39 38 37 37 38 39
37 42 43 43 38 36 38 38 37 43 45 49 51 49 38 38 41 50 46 43 39 39 34 42 32 34 33 34 34 33 36 39 42 41 41 40 39 38 36 34 34 33 33
42 42 42 35 35 35 34 38 44 48 47 46 42 38 40 41 45 47 44 39 35 29 24 29 30 30 31 33 34 35 38 41 42 39 38 37 37 34 32 30 29 28 29
39 35 32 32 33 35 39 43 44 43 41 39 38 41 42 45 43 41 37 32 27 23 25 28 27 29 30 32 33 36 39 41 39 39 34 32 30 27 26 25 24 24 20
33 30 31 33 35 38 40 40 40 40 40 41 42 43 42 42 40 36 29 18 23 25 21 22 29 28 29 32 35 38 40 39 38 31 25 24 25 23 21 21 21 21 18
29 30 32 34 37 39 41 40 39 36 37 39 39 39 40 38 36 32 28 24 22 18 20 28 27 27 29 32 34 35 38 39 35 27 25 24 22 19 17 17 18 17 15
29 31 33 36 37 38 39 39 39 38 37 36 36 38 38 36 34 30 23 15 17 22 23 24 25 27 28 30 31 34 36 36 30 25 24 23 21 19 17 16 16 17 17
30 32 34 35 35 37 39 40 38 37 37 37 37 37 35 33 29 23 16 16 18 19 21 22 23 24 27 29 29 31 32 31 25 23 23 22 21 19 17 15 16 15 12
31 33 34 34 35 36 38 38 37 39 39 36 34 34 32 28 23 17 17 16 17 19 20 21 22 25 27 28 28 28 27 26 22 21 21 20 19 19 18 16 14 12 10
32 33 34 33 34 36 38 38 37 37 35 34 34 30 28 25 18 18 16 15 15 18 19 21 23 25 26 27 27 28 29 29 24 21 20 19 18 17 16 13 11 12 12
33 34 32 32 33 35 37 39 38 36 35 33 29 26 25 20 18 16 16 15 16 17 18 20 23 24 24 25 25 25 27 28 25 21 20 19 19 17 14 11 11 12 12

GFSMW_700_spd_033.txt.gz
Wind_Speed
23 23 23 21 19 17 18 19 21 21 23 18 16 20 22 24 25 28 30 31 34 35 37 41 44 45 47 51 54 56 55 55 54 54 53 51 49 48 46 45 46 46 45
24 23 21 18 18 18 20 22 21 15 15 17 18 21 23 22 22 25 28 32 35 38 41 43 46 49 51 51 50 50 51 51 52 53 54 56 54 51 48 45 45 45 47
17 18 19 17 17 19 19 17 15 14 15 17 19 19 19 22 24 28 32 35 37 39 41 43 45 45 47 47 48 50 51 52 51 50 50 52 55 57 50 47 48 49 48
11 15 7 9 10 12 11 13 16 18 19 17 15 15 19 24 30 32 34 35 37 40 42 46 47 49 49 48 50 51 51 51 52 50 48 47 50 53 57 52 43 42 44
9 6 6 6 9 13 14 16 19 21 22 26 30 35 36 37 40 39 39 40 42 44 47 48 48 48 48 51 52 51 51 52 52 52 52 51 49 46 46 50 47 38 35
15 7 7 7 14 13 12 17 24 24 29 35 41 41 40 41 41 40 41 43 46 48 48 46 45 46 46 48 50 50 50 48 46 46 46 45 44 42 42 43 42 42 33
6 7 14 15 22 22 22 28 31 29 37 42 47 45 42 40 42 43 44 45 46 46 46 45 47 50 51 51 46 46 45 42 41 41 41 40 40 40 40 40 41 37 28
9 17 23 22 25 28 24 30 30 31 37 44 48 44 43 45 46 45 44 43 44 45 45 47 48 50 47 44 40 37 38 37 38 39 40 41 39 36 32 33 35 37 40
29 27 20 25 25 23 23 30 32 36 42 50 47 46 45 44 42 41 40 42 43 45 48 48 50 46 41 38 34 33 34 36 38 40 41 38 35 33 34 34 35 35 38
16 20 22 22 22 23 29 32 35 42 46 44 44 44 41 40 41 43 45 48 48 50 50 45 52 47 43 37 31 32 33 36 38 42 41 36 34 32 31 31 32 33 34
21 20 23 25 28 29 31 35 41 42 44 44 42 40 42 44 43 44 48 46 47 48 46 50 44 48 49 32 28 33 36 36 37 38 36 35 34 35 35 36 36 36 38
21 25 26 27 27 30 33 38 46 43 42 41 40 42 44 47 47 48 51 50 53 51 54 41 45 46 29 26 25 29 33 34 35 32 33 34 35 36 37 39 40 39 38
27 27 28 28 31 32 37 45 43 41 40 41 43 42 43 46 49 49 52 56 52 48 44 48 42 37 24 25 28 31 34 35 32 32 34 35 37 39 42 43 43 42 41
26 27 29 30 33 39 43 43 41 41 42 42 43 44 46 47 48 52 53 48 46 45 43 41 36 38 30 26 31 33 37 35 33 33 36 39 42 45 44 42 42 41 41
27 29 32 36 40 42 42 43 42 42 42 43 44 47 49 50 48 45 45 45 45 46 42 35 35 35 30 29 31 40 37 33 33 35 39 43 45 44 43 43 40 39 39
29 33 35 37 40 40 43 40 41 41 43 45 47 46 46 45 44 45 45 45 43 41 36 30 24 25 28 30 36 36 33 33 36 40 42 44 44 44 43 40 38 37 37
31 34 38 40 41 39 38 40 41 42 44 44 45 45 45 44 43 41 41 40 37 33 28 22 21 25 28 32 33 32 34 37 39 41 43 44 44 40 37 34 33 31 31
36 39 40 38 36 35 38 39 40 42 43 44 45 45 43 42 38 39 37 34 29 24 19 21 23 26 27 33 32 33 35 37 39 41 42 41 36 32 31 31 29 25 24
37 35 35 33 34 36 38 38 39 41 42 44 43 40 40 39 38 38 35 33 29 23 27 22 22 24 32 30 32 34 35 36 38 39 37 31 29 29 28 26 25 23 20
36 32 31 32 35 36 37 38 39 40 41 39 37 38 39 39 38 36 35 31 27 23 22 20 25 28 28 30 32 34 36 37 38 37 29 26 26 25 24 23 23 22 18
27 29 30 34 36 37 38 38 38 38 38 36 38 40 40 39 37 35 32 29 21 20 20 23 24 26 28 29 32 34 36 37 38 36 26 24 24 23 22 21 20 20 17
27 29 32 34 36 37 37 38 37 38 38 38 39 39 38 36 35 32 29 22 18 19 21 21 23 25 27 30 32 33 34 35 37 32 25 23 23 22 21 21 20 18 16
27 31 33 34 36 37 37 36 36 37 38 39 39 39 38 35 31 28 24 21 20 19 19 21 21 24 28 29 31 31 31 31 32 29 25 23 23 22 22 20 18 16 14
30 31 33 34 35 36 36 36 36 37 39 38 37 38 36 30 28 25 21 19 18 18 19 20 21 24 26 27 28 29 28 28 28 27 23 22 21 22 21 19 15 12 13
31 33 34 34 36 36 35 37 37 38 39 39 37 37 32 28 26 23 21 19 18 18 18 19 20 22 24 26 27 28 27 26 27 27 24 21 19 19 18 16 14 14 14
33 34 34 35 36 36 36 36 37 38 39 38 36 35 29 27 24 22 21 19 18 18 18 18 20 21 23 25 26 27 27 26 26 27 25 22 19 17 16 13 14 14 15

GFSMW_700_spd_036.txt.gz
Wind_Speed
18 20 21 22 21 21 19 16 21 24 13 8 14 16 18 19 21 24 27 29 31 33 36 39 43 46 49 52 54 55 55 54 55 56 55 52 53 51 50 49 49 49 49
23 23 21 16 11 12 13 17 18 20 12 10 13 16 20 21 22 24 26 30 34 37 39 42 46 48 47 47 48 49 50 50 52 55 56 57 56 54 48 47 48 49 50
13 9 8 9 11 11 11 10 11 12 15 16 15 17 20 21 23 26 30 33 35 36 39 42 45 47 51 52 52 52 52 53 52 52 52 53 55 55 51 47 46 46 47
6 5 7 5 5 5 7 9 11 13 14 14 19 26 32 34 35 36 36 39 42 45 45 45 46 47 48 48 49 51 52 54 55 55 54 54 55 53 56 52 46 39 36
6 5 5 5 1 7 6 7 15 20 21 23 29 35 39 42 41 40 41 43 44 44 46 48 49 49 51 52 51 50 51 51 47 44 43 42 42 43 45 48 47 49 42
9 13 12 11 6 8 15 25 23 24 26 29 35 38 42 42 42 42 42 42 43 44 46 46 49 51 49 49 49 50 48 45 44 40 36 35 38 41 45 45 44 45 44
11 5 10 15 20 29 21 22 23 26 29 31 36 41 43 41 42 43 43 43 44 44 44 47 48 50 51 51 48 48 44 42 38 33 31 34 35 38 40 40 41 41 40
10 13 22 27 20 20 20 23 24 29 30 34 40 42 42 42 43 43 43 45 47 47 47 47 48 50 52 49 52 45 45 34 31 30 31 33 35 38 36 36 38 40 39
18 25 27 21 21 24 27 27 28 31 33 37 45 43 43 43 43 44 46 46 47 49 51 49 50 50 50 48 43 43 43 39 30 32 36 36 37 36 33 33 34 35 39
19 20 17 22 23 29 28 29 32 34 35 42 43 42 41 42 44 45 46 49 51 52 53 53 51 46 43 38 45 28 23 25 30 32 34 36 36 34 32 32 32 33 36
18 21 22 23 28 29 30 32 32 34 39 39 40 39 41 43 44 47 51 53 55 54 53 45 44 41 39 38 30 21 23 27 30 31 35 36 36 36 34 34 35 38 39
23 23 24 27 30 31 31 32 37 40 38 39 39 41 43 44 46 49 52 55 53 51 49 47 44 42 40 34 31 26 22 26 30 35 36 35 36 35 36 38 40 42 43
23 24 26 29 31 32 32 37 39 35 37 39 40 42 43 46 49 51 51 49 49 48 45 43 41 37 34 25 35 30 28 31 35 35 33 35 36 38 40 42 43 42 41
25 27 29 31 31 34 36 35 37 37 38 39 41 43 45 47 48 48 48 46 44 42 41 39 36 30 26 25 24 27 29 35 35 35 36 37 39 42 43 44 43 42 41
27 28 29 31 36 37 35 36 36 38 40 42 43 45 46 47 47 46 44 42 39 38 36 34 31 26 23 24 24 26 32 34 34 35 37 39 41 43 44 44 42 39 37
28 28 30 36 38 35 34 35 37 39 41 43 45 45 45 45 45 44 42 37 37 34 33 30 24 22 23 25 25 30 32 32 34 37 38 39 41 42 40 35 32 32 33
27 29 34 35 35 34 34 35 38 41 43 44 44 44 45 45 43 42 41 39 36 33 32 26 24 27 24 25 27 31 31 33 35 37 39 40 41 37 33 33 32 29 28
27 32 34 35 35 33 33 36 39 40 41 42 43 44 44 43 41 42 41 38 35 32 29 25 26 22 22 24 27 28 30 32 35 36 38 39 36 31 32 31 29 26 23
30 34 34 33 31 32 34 37 39 40 41 42 43 42 42 41 40 40 39 36 33 31 29 21 20 21 24 26 27 29 32 34 34 35 37 37 31 29 29 28 27 25 23
35 30 30 29 31 33 35 37 39 40 41 41 40 40 40 40 39 40 37 34 31 29 22 19 21 23 24 25 28 31 33 33 33 33 35 33 28 27 26 26 26 25 22
32 27 27 29 31 34 37 38 39 40 40 40 39 40 40 39 39 39 35 30 28 23 21 21 21 22 22 25 28 31 33 33 33 34 34 29 25 25 24 24 25 23 21
25 24 26 29 33 36 38 39 39 40 39 39 39 40 40 39 38 37 32 28 25 22 21 19 19 21 22 24 27 30 32 33 33 32 32 29 25 23 23 23 22 18 18
23 23 26 31 34 37 38 38 39 39 40 39 39 40 39 38 37 35 30 27 23 22 20 18 19 20 21 23 26 29 31 31 31 30 31 29 25 22 21 21 19 17 17
20 24 29 33 35 36 37 38 39 40 40 40 39 39 39 38 35 32 29 26 22 20 19 18 18 19 20 22 25 28 29 29 28 27 28 28 24 21 19 17 18 17 17
21 28 32 34 35 35 36 38 39 39 38 38 38 37 37 36 34 31 29 25 22 20 18 18 19 18 19 21 24 26 27 27 27 25 26 27 23 20 18 17 16 17 17
27 31 34 34 35 36 37 37 37 36 36 36 36 36 35 34 32 29 26 24 22 20 19 18 18 18 18 20 23 25 25 26 26 24 25 25 25 21 17 15 14 15 17

GFSMW_700_spd_039.txt.gz
Wind_Speed
15 16 18 19 22 24 24 21 11 13 14 8 9 9 11 13 18 21 23 25 27 31 34 37 39 40 41 43 46 47 49 51 54 56 56 55 55 54 55 53 53 52 51
18 19 19 13 11 12 11 10 11 9 9 12 9 7 9 12 16 20 24 27 30 32 34 35 38 40 42 44 46 48 49 50 51 53 55 55 55 56 55 55 53 52 51
18 13 8 7 8 9 5 3 5 9 11 6 5 12 18 23 27 28 27 28 31 34 36 39 40 42 43 44 45 47 49 49 50 50 50 51 52 52 48 45 39 36 35
8 8 6 6 7 5 3 4 5 9 10 11 16 22 26 30 34 35 36 37 37 38 39 41 43 45 47 47 48 48 48 48 46 46 45 42 44 44 44 39 36 33 34
10 9 5 5 5 5 4 6 13 14 15 20 24 24 29 33 37 38 38 38 38 39 41 42 44 45 47 49 48 47 47 46 45 46 42 42 41 38 37 40 38 36 35
14 10 6 9 6 4 14 18 22 26 23 22 25 27 32 37 39 38 38 38 40 41 42 43 45 46 47 47 48 49 48 46 45 42 39 38 38 36 37 40 40 38 36
16 10 7 8 12 21 26 11 14 20 22 25 28 31 35 39 38 37 38 40 42 44 45 46 46 47 48 49 48 48 44 32 38 37 38 35 32 35 37 39 39 40 38
15 10 11 17 18 17 16 16 20 24 25 28 31 34 39 39 38 39 41 44 46 47 48 49 50 50 49 47 44 40 35 38 40 32 28 29 33 34 33 37 36 37 38
13 12 16 18 14 18 19 21 24 26 29 31 35 39 39 38 41 43 44 46 47 49 52 53 52 49 46 43 38 33 35 31 29 27 28 27 30 33 36 36 35 35 39
14 15 16 17 20 21 22 23 26 28 31 35 40 40 38 41 41 42 44 47 49 50 51 50 49 46 41 38 35 34 30 22 25 24 26 29 32 35 36 35 35 35 38
16 17 18 21 22 23 25 27 30 35 39 40 37 36 39 39 42 43 45 46 48 49 50 48 44 40 38 33 33 30 28 32 27 25 27 33 36 35 35 35 35 37 40
21 21 21 23 24 28 29 33 37 40 41 33 34 37 39 41 42 42 44 46 47 47 46 42 41 38 34 32 29 22 30 30 28 32 34 37 35 35 35 37 39 41 42
23 24 25 26 29 33 34 34 39 40 33 34 35 38 39 40 41 43 44 45 45 43 42 40 37 33 29 26 25 23 22 24 25 30 35 34 34 36 37 38 40 42 42
26 27 27 30 33 33 33 37 38 32 32 34 36 37 38 40 42 43 44 44 43 43 40 37 34 31 27 22 21 22 22 25 29 32 32 34 35 37 38 40 41 40 38
29 28 29 31 29 31 36 37 33 32 34 34 36 39 40 41 42 43 42 43 42 42 38 35 33 30 26 23 24 24 24 28 31 31 33 34 35 36 38 39 35 33 34
29 29 27 27 30 33 33 33 34 32 34 36 39 40 41 41 42 42 43 43 43 41 37 34 31 28 26 27 23 23 25 28 30 32 32 34 35 36 36 31 29 30 30
26 25 25 27 29 31 33 31 30 32 35 37 39 40 41 42 42 43 43 42 42 41 37 32 29 26 25 21 21 23 25 28 31 33 33 33 33 35 32 29 29 28 27
25 25 27 28 31 31 30 30 31 33 36 38 39 40 42 42 42 42 41 41 41 39 33 28 26 20 18 20 21 22 25 28 30 32 32 32 32 33 30 28 28 27 26
25 27 30 32 35 29 28 29 32 34 37 39 39 41 43 42 41 40 40 39 39 34 28 26 20 18 19 19 20 22 25 28 30 31 31 31 32 31 27 27 27 26 25
26 31 34 26 27 25 26 30 33 36 37 39 40 41 42 41 39 39 39 38 35 30 27 23 21 20 19 19 20 23 25 28 29 29 30 30 31 29 26 26 27 26 23
29 29 32 30 24 22 27 31 34 37 38 39 41 41 40 39 38 38 37 36 32 28 26 23 21 19 18 17 19 22 26 29 29 30 29 29 29 27 24 23 24 23 20
34 27 25 23 19 24 28 33 37 38 39 40 40 40 39 38 36 36 35 33 29 27 24 22 20 18 17 17 18 21 25 28 29 29 28 28 28 26 22 20 19 19 17
36 32 20 15 22 27 32 36 37 38 39 40 39 38 36 36 36 34 34 32 28 26 23 21 20 18 17 16 17 20 24 26 27 28 27 27 27 24 21 19 17 17 17
16 16 12 18 24 29 32 35 36 38 38 37 36 35 34 35 34 33 32 30 27 24 22 21 19 18 17 16 16 18 22 24 26 27 26 26 26 25 22 19 18 17 16
16 12 17 22 26 29 32 34 35 36 36 35 34 34 35 35 32 30 29 28 25 22 21 20 19 18 17 16 16 17 20 22 24 25 25 24 24 24 22 20 17 17 17
9 15 21 24 27 30 31 33 34 34 34 33 32 32 32 32 30 28 27 24 22 21 21 19 19 18 17 16 15 16 18 20 22 24 24 23 22 22 21 20 18 16 16

GFSMW_700_spd_042.txt.gz
Wind_Speed
15 14 15 17 20 21 23 23 21 13 13 2 2 3 5 8 9 13 16 18 21 25 29 32 33 35 39 40 41 42 44 45 47 47 48 49 51 52 52 52 54 53 55
16 16 17 19 20 17 14 10 11 8 4 4 7 6 4 7 10 13 17 20 24 28 30 32 35 36 37 39 40 42 43 44 47 49 48 48 42 36 38 48 51 51 50
19 18 17 14 11 11 11 12 7 4 4 7 5 7 10 12 16 19 24 28 30 30 31 32 34 37 39 40 42 43 44 46 45 47 48 45 37 38 40 36 41 42 39
19 16 13 11 10 9 8 5 3 5 7 11 14 13 13 16 23 27 31 33 34 35 34 36 38 39 40 41 42 44 45 45 45 42 33 33 37 39 43 34 30 31 30
17 15 13 10 10 10 10 7 9 12 19 20 18 17 20 24 28 31 35 37 37 36 36 37 38 39 40 42 45 45 44 42 40 31 35 32 32 27 28 32 27 27 24
16 16 15 11 10 8 9 18 21 21 18 17 21 22 24 29 33 36 37 38 38 38 39 39 40 42 44 45 45 41 29 27 27 28 30 34 34 32 28 32 32 35 29
18 17 12 10 8 11 18 14 14 15 19 20 23 25 29 34 37 38 37 37 37 38 40 43 44 45 45 46 42 26 25 28 29 30 35 33 33 31 27 29 33 31 36
19 17 12 9 11 15 12 14 16 19 21 23 26 31 32 36 39 36 37 37 40 42 43 44 46 47 47 45 34 31 32 29 30 33 29 28 31 31 30 28 29 37 40
20 17 14 13 14 13 15 18 20 23 24 26 30 35 36 39 35 37 38 39 40 42 44 45 46 46 45 42 33 27 29 32 32 26 25 29 29 26 29 32 28 31 36
22 20 16 15 15 17 19 21 24 25 29 30 35 38 40 34 35 36 38 39 40 41 43 44 45 43 41 37 30 27 31 29 25 26 30 28 31 34 37 30 28 31 33
22 21 20 18 19 20 23 25 27 29 31 35 37 40 34 32 34 37 38 39 41 42 43 43 42 41 38 34 30 28 25 24 23 30 32 31 32 36 36 30 29 30 31
24 23 22 23 24 25 26 28 32 36 34 37 39 31 31 33 35 37 38 40 41 41 42 42 42 41 37 32 29 27 24 23 24 26 27 29 33 36 34 31 31 33 33
25 27 25 27 29 29 31 33 37 34 38 38 30 32 33 34 36 38 39 40 40 41 41 42 42 40 36 33 30 26 22 24 25 26 28 32 33 35 35 37 38 39 41
27 30 31 31 32 32 34 39 33 35 35 35 33 32 33 35 37 39 39 40 41 41 41 41 41 38 34 32 26 23 25 25 25 26 30 32 34 35 36 36 37 39 39
28 30 33 33 33 33 36 35 33 33 35 31 30 32 34 36 38 39 40 40 41 40 40 40 40 37 31 28 26 25 23 23 24 27 30 33 34 33 34 35 35 34 31
24 29 32 33 32 33 36 32 34 34 28 27 31 33 35 37 38 39 40 41 41 41 41 40 38 33 30 27 24 20 21 22 25 28 30 32 33 33 33 32 31 28 29
20 26 31 31 31 34 34 33 34 29 26 29 32 34 36 37 38 40 41 41 41 39 39 39 35 30 28 23 19 19 20 21 25 28 30 31 32 31 31 31 28 25 26
22 25 29 29 32 35 37 35 28 23 26 30 33 37 37 38 40 41 41 41 39 38 38 36 31 28 25 20 19 18 19 21 25 29 30 30 30 30 30 30 26 24 25
21 25 27 30 33 38 35 37 28 24 27 30 35 36 37 39 41 41 40 39 37 37 36 33 28 25 24 20 18 18 18 21 24 27 28 28 28 29 29 27 25 24 24
21 25 28 32 35 39 30 23 21 24 27 33 35 37 38 41 41 39 38 37 37 35 33 30 27 24 22 20 18 17 19 20 24 25 27 29 27 28 28 25 23 22 21
22 25 29 33 35 37 23 18 22 25 30 33 36 37 39 40 39 36 36 35 35 34 32 29 26 23 20 19 17 17 18 20 23 24 25 26 26 26 25 23 21 19 19
27 29 33 35 31 27 16 20 26 26 30 34 35 36 38 38 36 34 34 34 33 31 30 27 24 21 19 17 17 17 18 20 22 23 24 25 25 25 24 21 19 18 18
34 38 35 26 18 15 18 22 23 28 31 33 35 36 37 35 33 33 33 32 31 29 27 26 23 21 19 18 17 17 17 18 20 22 23 23 23 23 23 21 18 17 17
35 35 33 17 15 18 18 21 26 29 31 33 35 36 33 31 31 31 30 29 28 28 25 23 21 20 19 18 18 17 17 17 18 20 21 22 22 22 22 22 20 18 17
36 29 10 13 14 16 21 25 27 29 32 34 35 32 32 31 29 29 29 29 27 25 24 23 21 20 19 19 18 17 17 17 17 18 20 20 21 21 22 22 21 19 17
24 12 10 14 16 19 23 26 28 31 33 34 32 32 31 30 28 29 29 28 25 24 23 22 22 20 20 19 18 18 17 16 16 17 17 18 19 20 20 20 20 20 19

GFSMW_700_spd_048.txt.gz
Wind_Speed
22 23 16 20 21 23 19 18 16 19 22 22 17 13 9 7 7 8 12 17 18 17 21 25 27 29 33 35 37 38 39 39 40 42 43 42 43 44 42 43 44 45 47
23 19 20 20 23 26 22 18 22 22 21 16 14 11 7 8 10 12 16 16 18 22 25 27 31 33 33 34 37 37 38 39 40 42 44 45 42 41 41 40 40 43 48
25 23 22 24 27 28 25 23 22 16 15 12 11 10 12 12 14 16 19 19 21 22 26 28 30 34 35 35 35 37 39 40 38 38 40 44 46 46 44 42 40 40 48
26 25 25 28 26 24 26 19 17 15 13 11 13 12 15 16 19 20 24 23 26 27 30 31 34 33 34 35 36 36 37 38 41 40 38 39 43 43 47 41 36 37 37
23 24 24 24 22 21 18 19 15 12 11 13 14 14 14 15 17 20 25 28 32 37 36 36 36 37 38 39 39 39 40 40 41 41 40 38 31 33 36 41 38 36 38
27 26 22 24 17 15 16 14 13 15 14 16 17 15 17 20 24 25 27 30 33 34 33 36 38 38 38 39 39 39 39 40 40 37 33 30 36 37 39 40 43 47 35
30 27 25 22 21 16 15 13 14 19 19 18 18 20 21 23 27 30 31 34 34 32 31 34 37 37 38 38 39 39 39 40 40 37 29 30 35 37 37 42 39 38 37
24 21 21 21 19 18 16 15 17 22 20 19 20 21 25 28 30 33 34 35 36 32 33 35 36 37 39 40 41 40 39 38 38 32 29 32 35 38 41 37 35 39 41
18 20 21 21 21 21 19 18 21 24 23 23 25 26 28 31 33 36 37 37 34 32 33 35 37 38 39 41 41 41 39 37 37 31 31 33 35 33 31 29 38 39 37
18 20 22 23 24 25 24 22 22 27 26 28 28 30 33 34 37 38 36 34 33 31 34 37 39 40 41 41 41 42 39 35 35 33 34 35 36 31 33 37 37 35 36
16 19 23 24 25 28 28 27 23 27 31 34 32 35 38 41 45 38 32 34 33 33 36 38 39 40 40 39 40 41 39 38 35 32 29 29 27 32 33 33 32 32 34
17 20 21 26 28 30 29 33 29 31 35 36 36 36 39 42 44 40 34 34 33 33 36 39 40 40 39 39 39 39 37 37 34 26 28 31 32 31 33 33 34 36 38
20 21 23 27 29 34 38 37 34 34 39 37 35 37 44 41 48 34 32 31 32 36 37 39 40 40 38 37 35 35 36 33 30 29 29 29 29 30 31 31 34 37 40
19 21 25 27 33 38 38 34 37 39 39 34 37 40 41 45 39 31 30 30 36 34 38 39 39 42 39 37 35 35 34 31 30 30 30 30 29 29 30 32 35 37 38
20 20 27 32 39 39 34 34 40 40 35 36 37 43 44 45 36 28 29 35 32 37 38 39 39 39 37 37 34 34 32 31 29 27 28 27 26 28 31 33 33 34 35
18 28 29 33 34 30 33 38 41 38 37 37 43 44 40 31 30 29 34 29 33 37 38 38 38 35 35 34 32 33 30 29 27 28 27 25 25 30 33 34 35 34 35
17 22 25 25 26 29 34 40 39 38 39 40 42 40 33 25 27 31 28 31 35 37 38 37 36 35 35 34 32 31 29 27 27 26 24 24 25 29 29 31 32 32 32
15 18 21 27 29 32 37 39 39 39 41 44 41 38 31 31 30 25 29 32 36 39 39 34 33 35 35 34 32 29 28 27 25 24 23 24 26 27 29 30 30 29 29
19 20 23 27 32 35 36 38 38 40 42 45 42 29 28 28 23 26 31 36 38 39 38 34 33 33 33 32 31 29 27 26 23 23 23 24 24 26 28 28 28 28 27
28 23 24 26 27 32 35 37 40 42 47 43 32 25 26 21 23 28 33 37 37 38 37 33 33 34 32 31 32 28 25 25 22 22 22 23 23 25 26 27 27 26 26
28 29 30 28 32 36 38 39 40 39 37 30 27 24 22 25 28 32 35 36 37 36 35 34 33 33 31 31 29 25 24 24 22 21 21 23 22 23 25 26 26 26 25
31 32 33 36 38 38 39 42 41 44 31 23 23 25 24 27 30 33 35 36 38 36 34 32 33 32 30 29 27 23 22 24 22 21 21 21 21 22 23 23 24 24 24
35 34 35 35 35 40 39 36 30 20 21 25 22 24 27 30 32 35 36 37 38 35 33 33 33 32 30 28 26 24 21 22 23 23 21 20 21 21 20 21 22 21 21
32 29 29 32 37 29 19 15 21 25 20 21 24 27 30 32 34 35 37 38 38 37 34 33 32 32 30 27 26 26 25 22 21 22 22 21 21 20 19 19 19 21 22
27 29 28 19 13 17 23 24 20 19 21 24 27 30 32 35 37 38 38 38 37 36 35 32 31 31 30 28 26 26 25 26 23 21 21 21 21 20 20 19 19 19 20
26 21 16 19 19 14 16 18 21 23 25 28 31 34 37 39 40 40 39 36 35 36 35 32 31 30 29 28 27 26 26 25 25 24 22 21 21 20 20 19 18 17 18